SL-14 DEB, 45307

Orbit data source: Space-Track

SL-14 DEB, 45307 is space debris in LEO originally from a launch on Thu, 15 Aug 1991 UTC launched from the Plesetsk Missile And Space Complex (PKMTR). Debris objects in space refer to the collection of defunct objects orbiting the Earth. Examples of debris include non-operational satellites, rocket bodies, and fragments generated from explosions, collisions, or faulty payload assembly.

Loading next visibility...
Identifier
45307, 1991-056AV
Orbit
LEO
Country
Flag of CISCIS
Related business
Manufacturer
Unknown
Mission
Spacecraft
Bus & Motor
Unknown
Mass
Unknown
Launch date (UTC)
1991-08-15 (35 years ago)
Launch vehicle
Unknown
Launch site
Plesetsk Missile And Space Complex (PKMTR)
Object type
Payload
Rocket body
Debris
Shape & HBR
Unknown shape, 0.1 m
Radar Cross Section
Medium (>0.1 m² and <1 m²)

Expand to show TLE details & history
Last TLE update: 5 hours ago

TLE from 5 hours ago
0 SL-14 DEB
1 45307U 91056AV  26175.29657495  .00005102  00000-0  13097-1 0  9997
2 45307  82.5935 199.4231 0256949 128.8769 233.5577 13.06686584299412
Epoch: 2026-06-24T07:07Z
TLE epoch observation values (Epoch: 2026-06-24T07:07:04.075Z)
Latitude
-0.00005°
Longitude
-179.79971°
Altitude
1,358.219 km
Speed
7.123 km/s
True Right ascension
13h 17m 41s
True Declination
0° 00' 00"
Sunlit
Object was in daylight at epoch
Visualization orbit readout
Latitude
Unknown
Longitude
Unknown
Altitude
Unknown
Speed
Unknown
Apparent Right ascension
Unknown
Apparent Declination
Unknown
Sunlit
N/A
Visualization observer readout
Local Sidereal Time
23:43:01
Azimuth
Unknown
Elevation
Unknown
Doppler factor
Unknown
Orbital elements
Apogee altitude
1,428.832 km
Perigee altitude
1,037.684 km
Semi-major axis
7,611.395 km
Eccentricity
0.02569
Inclination
82.5935°
RAAN
199.4231°
Arg. of periapsis
128.8769°
True anomaly
231.23406°
Mean anomaly
233.5577°
Eccentric anomaly
232.39142°
Mean motion
3.26849 °/min
Orbital period
110.14 mins
BSTAR
0.013097
Loading maneuver chart data...
Computing Atmospheric mass density...
Loading historical data...
Loading historical data...
Loading historical data...
Loading historical data...
Loading historical data...
Loading historical data...
Loading historical data...

Documentation

Showing up to 5 results
|